Weather in Oıtal

Kazakhstan     42°54′22″N   73°16′08″E
temp.,
°C
wind,
m/s
gust,
m/s
humid.,
%
clouds,
%
prec.,
mm/h
press.,
hPa
HPBL,
m
11 april, sun
sun1100:00+12w33500 0.0 101744
03:00+8wnw46680 0.0 1018130
06:00+7wnw12640 0.0 101911
09:00+10nne22550 0.0 1018346
12:00+14ne33490 0.0 1017831
15:00+18n22400 0.0 10161093
18:00+19w22398 0.0 1016921
21:00+14w34562 0.0 101750
12 april, mon
mon1200:00+11wsw23600 0.0 101752
03:00+10w3373100 0.0 101671
06:00+8w6983100 0.0 1019291
09:00+10nnw017097 0.0 1019120
12:00+15nw325579 0.0 1018667
15:00+18nw3246100 0.0 10181082
18:00+17w4656100 0.0 1019186
21:00+14se226290 0.0 101813
13 april, tue
tue1300:00+12w3366100 0.0 101942
03:00+12sw116496 0.0 101810
06:00+11se226592 0.0 101816
09:00+15wnw1155100 0.0 1019182
12:00+17wnw2250100 0.0 1019740
15:00+19wnw2245100 0.0 10191599
18:00+18w5653100 0.0 1020503
21:00+14wsw3660100 0.0 1021126
14 april, wed
wed1400:00+13wsw346488 0.0 102059
03:00+11w226655 0.0 101919
06:00+10w226843 0.0 102016
09:00+14wsw0157100 0.0 1020189
12:00+18ene32465 0.0 1018825
15:00+21ne324167 0.0 10161389
18:00+21ene334322 0.0 10151300
21:00+16e22582 0.0 101522
15 april, thu
thu1500:00+13e235633 0.0 101325
03:00+13ene12553 0.0 101112
06:00+12ese11581 0.0 101210
09:00+17ene22490 0.0 1012156
12:00+22ne223930 0.0 1010763
15:00+24nne223298 0.0 10091560
18:00+24nnw1135100 0.0 10091292
21:00+15wsw5875100 1.9 1013147